Location: Winnipauk Village
(41.1295°N, 73.4171°W)
Time: 14:44:02
(UTC+00:00)

Hubble Space Telescope - Pass Details

Date: 26 July 2021
Orbit: 535 x 539 km, 28.5° (Epoch: 21 September)

Event Time Altitude Azimuth Distance (km) Brightness Sun altitude
Rises 01:15:19 0° 232° (SW) 2,664 4.5 -10.1°
Reaches altitude 10° 01:18:34 10° 205° (SSW) 1,774 3.3 -10.6°
Maximum altitude 01:20:35 13° 175° (S) 1,567 2.7 -10.9°
Enters shadow 01:21:40 12° 159° (SSE) 1,627 2.7 -11.1°
